Humidity-temperature Sensor

Selected Measurement Type: Relative Humidity

 
Relative Humidity [%]     6 entries per hour
Showing data from 12/10/2018 (00:00:00 Z) to 12/3/2018 (00:01:00 Z)
Previous Next [ Day | 3-Days | 7-Days ]
First Last
Prev [ Day | 3-Days | 7-Days ] Next
First Last

Start Time:     :
End Time:     :     
Time (in GMT) :00 :50 :40 :30 :20 :10
Previous Next [ Day | 3-Days | 7-Days ]
First Last
Prev [ Day | 3-Days | 7-Days ] Next
First Last


123 => good data
MM => data is determined as missing
-- => data not received/configured
Back to Top Back to Top
12/10/2018 00:00 to 23:10 77.66 78.01 77.53 74.81 74.91 73.43
12/9/2018 23:00 to 22:10 75.06 76.46 76.40 76.36 76.52 77.06
12/9/2018 22:00 to 21:10 75.64 74.97 69.75 69.75 69.38 69.80
12/9/2018 21:00 to 20:10 71.28 70.46 71.24 72.05 71.82 72.83
12/9/2018 20:00 to 19:10 73.24 73.63 72.93 70.81 71.72 71.98
12/9/2018 19:00 to 18:10 73.61 73.88 73.32 74.67 76.75 76.54
12/9/2018 18:00 to 17:10 76.40 75.61 74.34 74.09 72.77 70.97
12/9/2018 17:00 to 16:10 70.62 70.29 70.50 71.12 70.46 68.43
12/9/2018 16:00 to 15:10 67.82 67.38 66.47 67.44 64.33 67.01
12/9/2018 15:00 to 14:10 69.34 73.10 73.72 75.04 73.99 73.76
12/9/2018 14:00 to 13:10 74.38 75.82 75.57 75.88 74.54 77.04
12/9/2018 13:00 to 12:10 80.17 80.11 80.01 80.81 80.83 81.31
12/9/2018 12:00 to 11:10 80.44 80.11 77.53 76.48 75.97 76.60
12/9/2018 11:00 to 10:10 74.87 75.37 76.28 75.04 75.55 75.49
12/9/2018 10:00 to 9:10 74.85 75.64 77.55 77.29 75.94 75.39
12/9/2018 09:00 to 8:10 74.85 75.43 75.53 75.39 77.45 77.93
12/9/2018 08:00 to 7:10 78.40 77.14 76.71 75.95 74.23 72.29
12/9/2018 07:00 to 6:10 74.15 74.40 77.39 77.58 76.28 76.28
12/9/2018 06:00 to 5:10 74.21 73.06 71.88 74.40 74.17 74.67
12/9/2018 05:00 to 4:10 72.81 72.83 74.40 73.61 74.27 74.87
12/9/2018 04:00 to 3:10 74.46 74.83 74.71 72.79 73.01 73.22
12/9/2018 03:00 to 2:10 72.77 74.79 74.69 74.83 75.16 75.72
12/9/2018 02:00 to 1:10 75.49 76.67 77.04 77.04 77.74 77.74
12/9/2018 01:00 to 0:10 77.57 77.76 78.40 78.13 77.25 77.18
12/9/2018 00:00 to 23:10 76.30 75.16 74.07 73.80 74.07 75.12
12/8/2018 23:00 to 22:10 73.72 74.64 75.61 76.09 76.46 76.28
12/8/2018 22:00 to 21:10 76.23 75.70 74.65 74.19 73.12 74.44
12/8/2018 21:00 to 20:10 73.06 71.98 71.36 72.52 70.42 70.72
12/8/2018 20:00 to 19:10 70.89 70.70 69.55 69.59 70.52 71.34
12/8/2018 19:00 to 18:10 71.20 70.79 71.86 71.71 72.09 68.39
12/8/2018 18:00 to 17:10 68.31 69.59 68.89 70.25 69.57 69.05
12/8/2018 17:00 to 16:10 69.76 69.63 69.75 71.71 73.59 75.84
12/8/2018 16:00 to 15:10 73.76 72.77 73.24 71.28 70.68 70.00
12/8/2018 15:00 to 14:10 70.17 69.14 67.96 68.45 69.51 70.37
12/8/2018 14:00 to 13:10 68.95 68.66 70.17 70.00 68.68 70.17
12/8/2018 13:00 to 12:10 70.29 69.14 69.01 69.96 70.77 72.93
12/8/2018 12:00 to 11:10 70.89 69.53 67.88 68.33 69.92 67.69
12/8/2018 11:00 to 10:10 69.80 70.33 71.20 69.90 69.14 69.22
12/8/2018 10:00 to 9:10 69.09 70.17 69.05 68.91 69.73 69.42
12/8/2018 09:00 to 8:10 70.21 69.51 69.53 69.82 70.31 71.76
12/8/2018 08:00 to 7:10 71.47 70.99 69.18 70.00 69.45 70.62
12/8/2018 07:00 to 6:10 71.71 72.36 73.12 74.48 74.46 75.66
12/8/2018 06:00 to 5:10 77.10 78.01 77.70 78.21 77.45 76.54
12/8/2018 05:00 to 4:10 74.67 74.17 74.25 74.54 74.15 74.11
12/8/2018 04:00 to 3:10 74.31 74.25 74.11 72.75 72.19 71.24
12/8/2018 03:00 to 2:10 69.88 70.79 72.17 73.16 74.27 75.57
12/8/2018 02:00 to 1:10 75.33 75.72 76.38 76.01 76.30 77.10
12/8/2018 01:00 to 0:10 77.51 77.27 77.27 76.75 75.80 74.07
12/8/2018 00:00 to 23:10 73.90 73.39 71.51 71.03 70.99 69.84
12/7/2018 23:00 to 22:10 69.01 69.76 70.48 69.42 68.74 70.31
12/7/2018 22:00 to 21:10 71.65 70.99 69.71 70.64 71.39 71.39
12/7/2018 21:00 to 20:10 70.97 70.99 71.32 71.67 72.13 71.08
12/7/2018 20:00 to 19:10 71.34 71.32 71.32 72.93 73.49 74.01
12/7/2018 19:00 to 18:10 74.11 74.60 75.18 76.56 76.36 76.07
12/7/2018 18:00 to 17:10 76.81 75.84 73.16 73.02 74.05 73.53
12/7/2018 17:00 to 16:10 73.47 74.89 74.95 75.80 76.34 76.07
12/7/2018 16:00 to 15:10 76.54 77.06 76.56 77.12 77.18 76.91
12/7/2018 15:00 to 14:10 76.98 75.78 75.62 75.12 75.04 75.37
12/7/2018 14:00 to 13:10 74.91 76.34 76.71 77.68 77.41 76.44
12/7/2018 13:00 to 12:10 74.50 74.79 75.22 74.85 74.97 75.00
12/7/2018 12:00 to 11:10 74.36 74.81 74.03 75.00 75.20 74.93
12/7/2018 11:00 to 10:10 74.69 74.36 74.65 74.29 74.54 74.79
12/7/2018 10:00 to 9:10 75.84 74.85 75.06 74.64 74.48 75.49
12/7/2018 09:00 to 8:10 75.22 75.20 74.01 73.63 74.79 75.51
12/7/2018 08:00 to 7:10 74.73 74.15 74.31 74.79 74.71 74.21
12/7/2018 07:00 to 6:10 73.47 74.09 73.49 73.08 72.54 72.71
12/7/2018 06:00 to 5:10 72.66 73.55 73.10 72.73 72.75 72.58
12/7/2018 05:00 to 4:10 73.34 72.44 72.81 73.14 73.61 72.23
12/7/2018 04:00 to 3:10 73.02 72.79 73.82 74.38 74.65 73.94
12/7/2018 03:00 to 2:10 73.30 73.90 74.40 74.21 74.34 74.21
12/7/2018 02:00 to 1:10 75.47 75.33 74.89 75.41 75.53 75.16
12/7/2018 01:00 to 0:10 75.55 75.39 75.47 75.55 75.82 75.99
12/7/2018 00:00 to 23:10 75.80 74.75 74.75 75.39 74.64 75.35
12/6/2018 23:00 to 22:10 73.96 74.21 75.20 75.76 75.90 75.94
12/6/2018 22:00 to 21:10 75.16 74.83 76.32 75.43 76.15 76.69
12/6/2018 21:00 to 20:10 76.19 76.05 76.11 75.00 73.78 73.88
12/6/2018 20:00 to 19:10 73.34 73.26 72.69 73.26 73.30 73.28
12/6/2018 19:00 to 18:10 73.08 73.28 73.86 74.34 74.46 75.61
12/6/2018 18:00 to 17:10 75.08 74.58 74.36 74.56 74.19 74.13
12/6/2018 17:00 to 16:10 73.06 73.72 74.50 74.98 75.35 75.49
12/6/2018 16:00 to 15:10 74.87 74.79 74.32 73.32 73.34 73.45
12/6/2018 15:00 to 14:10 74.01 74.83 74.52 75.10 75.18 75.70
12/6/2018 14:00 to 13:10 75.64 75.57 74.85 74.56 75.12 75.06
12/6/2018 13:00 to 12:10 75.43 75.80 75.82 76.52 76.40 76.91
12/6/2018 12:00 to 11:10 76.27 76.21 76.87 75.59 76.28 77.14
12/6/2018 11:00 to 10:10 77.39 78.46 78.52 78.54 78.01 79.18
12/6/2018 10:00 to 9:10 80.07 79.86 78.87 75.72 75.57 76.92
12/6/2018 09:00 to 8:10 76.56 76.67 77.47 76.87 76.73 76.07
12/6/2018 08:00 to 7:10 76.25 75.51 75.62 75.61 75.20 74.46
12/6/2018 07:00 to 6:10 74.64 74.34 74.60 72.89 73.63 73.53
12/6/2018 06:00 to 5:10 73.92 73.99 73.94 73.94 73.43 72.35
12/6/2018 05:00 to 4:10 73.04 75.02 74.01 72.85 72.81 74.42
12/6/2018 04:00 to 3:10 72.91 73.08 74.03 73.55 73.99 73.01
12/6/2018 03:00 to 2:10 73.14 72.73 71.57 72.11 72.35 72.66
12/6/2018 02:00 to 1:10 72.58 71.88 71.57 71.88 72.04 72.42
12/6/2018 01:00 to 0:10 70.91 71.14 70.91 70.91 70.68 71.41
12/6/2018 00:00 to 23:10 70.23 71.12 70.91 71.01 72.07 72.40
12/5/2018 23:00 to 22:10 72.64 72.54 73.04 73.80 72.83 73.37
12/5/2018 22:00 to 21:10 72.46 72.46 73.34 73.72 72.87 73.39
12/5/2018 21:00 to 20:10 73.39 73.55 72.68 72.23 72.73 73.74
12/5/2018 20:00 to 19:10 74.89 75.14 74.95 75.18 75.84 75.59
12/5/2018 19:00 to 18:10 75.64 75.29 74.89 75.33 75.61 76.01
12/5/2018 18:00 to 17:10 75.62 75.70 75.66 75.28 74.79 75.26
12/5/2018 17:00 to 16:10 74.95 74.91 74.56 73.67 74.27 74.89
12/5/2018 16:00 to 15:10 74.89 74.75 74.21 75.06 74.85 74.93
12/5/2018 15:00 to 14:10 75.24 74.83 74.65 75.39 74.23 74.67
12/5/2018 14:00 to 13:10 73.30 73.43 73.06 74.25 74.09 74.58
12/5/2018 13:00 to 12:10 73.35 73.51 74.09 74.83 74.73 74.42
12/5/2018 12:00 to 11:10 75.02 74.83 75.18 75.04 75.39 76.30
12/5/2018 11:00 to 10:10 75.55 75.18 75.35 74.95 74.89 74.75
12/5/2018 10:00 to 9:10 75.72 75.02 74.25 75.41 75.55 75.22
12/5/2018 09:00 to 8:10 74.98 74.98 74.79 74.54 73.70 73.55
12/5/2018 08:00 to 7:10 73.43 73.20 74.23 73.55 72.23 72.81
12/5/2018 07:00 to 6:10 72.89 72.40 72.71 72.69 73.12 72.93
12/5/2018 06:00 to 5:10 72.75 73.28 73.26 74.42 72.15 70.97
12/5/2018 05:00 to 4:10 72.29 71.61 73.41 73.22 73.04 72.42
12/5/2018 04:00 to 3:10 72.75 72.64 72.40 73.18 73.67 72.69
12/5/2018 03:00 to 2:10 73.51 73.41 73.35 72.29 72.81 73.82
12/5/2018 02:00 to 1:10 72.66 72.17 73.14 73.18 73.98 73.49
12/5/2018 01:00 to 0:10 72.93 72.66 73.08 73.37 73.02 72.25
12/5/2018 00:00 to 23:10 70.85 71.76 73.86 72.69 73.65 72.99
12/4/2018 23:00 to 22:10 72.95 72.13 72.97 67.16 68.60 69.78
12/4/2018 22:00 to 21:10 69.55 69.18 68.78 69.90 69.26 69.18
12/4/2018 21:00 to 20:10 69.53 70.17 70.08 71.86 73.43 73.55
12/4/2018 20:00 to 19:10 73.65 73.84 72.97 72.42 72.36 70.81
12/4/2018 19:00 to 18:10 70.62 71.55 70.87 72.11 71.14 70.79
12/4/2018 18:00 to 17:10 70.11 68.89 68.50 66.64 64.72 64.49
12/4/2018 17:00 to 16:10 66.06 65.44 66.47 66.23 64.39 67.38
12/4/2018 16:00 to 15:10 68.35 68.95 67.98 69.01 67.75 65.92
12/4/2018 15:00 to 14:10 67.57 68.29 68.02 65.81 65.63 67.20
12/4/2018 14:00 to 13:10 66.02 67.59 68.19 69.76 67.86 67.28
12/4/2018 13:00 to 12:10 68.46 67.71 66.33 66.10 68.15 68.76
12/4/2018 12:00 to 11:10 69.86 69.75 70.17 69.53 69.20 69.71
12/4/2018 11:00 to 10:10 70.23 70.56 69.80 70.33 70.29 69.20
12/4/2018 10:00 to 9:10 70.15 71.14 71.47 72.52 72.71 72.99
12/4/2018 09:00 to 8:10 72.27 72.75 71.86 72.11 69.40 68.68
12/4/2018 08:00 to 7:10 67.61 68.43 69.42 69.28 69.36 68.99
12/4/2018 07:00 to 6:10 69.88 69.98 71.10 71.24 71.26 70.46
12/4/2018 06:00 to 5:10 69.16 69.78 69.43 69.86 69.80 70.79
12/4/2018 05:00 to 4:10 71.36 70.62 71.16 70.46 70.25 69.42
12/4/2018 04:00 to 3:10 70.91 68.87 69.24 69.16 69.36 70.81
12/4/2018 03:00 to 2:10 70.89 70.75 71.63 71.06 72.19 71.76
12/4/2018 02:00 to 1:10 71.74 71.94 71.24 71.08 70.64 70.42
12/4/2018 01:00 to 0:10 70.70 70.60 69.76 70.85 70.23 69.49
12/4/2018 00:00 to 23:10 67.26 66.80 65.59 66.47 66.56 66.29
12/3/2018 23:00 to 22:10 67.44 67.46 65.38 66.60 64.97 64.80
12/3/2018 22:00 to 21:10 64.99 66.78 65.96 65.50 65.59 65.46
12/3/2018 21:00 to 20:10 63.42 61.79 65.55 64.45 65.69 64.91
12/3/2018 20:00 to 19:10 66.08 68.45 68.35 68.10 66.54 67.98
12/3/2018 19:00 to 18:10 66.25 68.39 67.05 67.57 68.13 67.40
12/3/2018 18:00 to 17:10 67.38 66.25 66.37 65.01 65.53 66.31
12/3/2018 17:00 to 16:10 66.10 66.93 67.77 69.34 67.55 66.00
12/3/2018 16:00 to 15:10 65.26 65.73 64.82 67.22 66.74 67.49
12/3/2018 15:00 to 14:10 66.23 66.95 66.12 64.74 63.85 61.79
12/3/2018 14:00 to 13:10 60.90 61.11 58.06 59.01 61.81 62.39
12/3/2018 13:00 to 12:10 62.41 62.57 62.55 63.26 64.49 64.93
12/3/2018 12:00 to 11:10 66.50 66.10 66.87 62.57 60.08 64.56
12/3/2018 11:00 to 10:10 63.30 62.53 64.31 64.12 64.21 65.73
12/3/2018 10:00 to 9:10 64.70 64.53 65.98 67.46 69.18 68.13
12/3/2018 09:00 to 8:10 67.22 68.19 69.10 70.08 70.17 70.87
12/3/2018 08:00 to 7:10 70.79 68.19 69.16 70.37 68.78 67.13
12/3/2018 07:00 to 6:10 66.70 64.02 63.36 65.88 64.51 62.84
12/3/2018 06:00 to 5:10 65.05 65.05 65.52 65.63 66.54 67.94
12/3/2018 05:00 to 4:10 66.85 64.51 66.06 67.44 68.46 65.92
12/3/2018 04:00 to 3:10 66.78 67.57 70.31 69.40 68.06 67.59
12/3/2018 03:00 to 2:10 66.45 67.13 69.24 69.40 63.73 69.80
12/3/2018 02:00 to 1:10 68.06 72.95 74.19 73.43 72.19 65.69
12/3/2018 01:00 to 0:10 65.38 64.76 65.98 66.78 67.16 65.03